Regional Weather Roundup
Issued by NWS

Home | Current Version | Previous Version | Graphics & Text | Print | Product List | Glossary On
Versions: 1 2 3 4 5 6 7 8 9 10 11 12 13 14 15 16 17 18 19 20 21 22 23 24 25 26 27 28 29 30 31 32 33 34 35 36 37 38 39 40 41 42 43 44 45 46 47 48 49 50
000
ASUS45 KBOU 041007
RWRCO

WEATHER ROUNDUP FOR COLORADO
NATIONAL WEATHER SERVICE DENVER/BOULDER CO
400 AM MDT TUE AUG 04 2015

NOTE: "FAIR" INDICATES FEW OR NO CLOUDS BELOW 12000 FEET WITH NO
SIGNIFICANT WEATHER AND/OR OBSTRUCTIONS TO VISIBILITY.

COZ001>005-013-030-031-041100-
...NORTHWEST COLORADO...

CITY           SKY/WX    TMP DP  RH WIND       PRES   REMARKS
CRAIG          PTCLDY    49  48  97 CALM      30.19R FOG
HAYDEN         PTCLDY    54  46  76 E8        30.20S
MEEKER         CLEAR     47  44  90 E3        30.21R
MOUNT WERNER   NOT AVBL
STEAMBOAT SPGS   N/A     52  51  96 CALM      30.22S
WALDEN         CLOUDY    54  45  71 S12       30.26F
$$

COZ006>008-011-041100-
...WEST CENTRAL VALLEYS...

CITY           SKY/WX    TMP DP  RH WIND       PRES   REMARKS
GRAND JUNCTION PTCLDY    60  51  72 E7        30.12R
MONTROSE       MOCLDY    65  47  52 E10       30.19F
EAGLE          PTCLDY    52  46  82 SE8       30.23F
RIFLE          CLEAR     58  52  80 N5        30.16R
DELTA          RAIN      65  51  61 NE8       30.16S
NUCLA          MOCLDY    59  46  63 E7        30.25S
$$

COZ017>023-064>068-041100-
...SOUTHWEST COLORADO...

CITY           SKY/WX    TMP DP  RH WIND       PRES   REMARKS
DURANGO        LGT RAIN  56  43  61 CALM      30.26R
CORTEZ         CLEAR     59  53  80 N3        30.19R
PAGOSA SPRINGS MOCLDY    48  44  85 CALM      30.34R
TELLURIDE      MOCLDY    50  43  76 SE8       30.45S
WOLF CREEK PAS NOT AVBL
$$

COZ009-010-012-014-032>034-037-058>063-041100-
...CENTRAL COLORADO...

CITY           SKY/WX    TMP DP  RH WIND       PRES   REMARKS
ASPEN          MOCLDY    52  44  74 SW9       30.29F
BUENA VISTA    CLOUDY    54  41  61 W16G28    30.32F
COPPER MTN     MOCLDY    48  32  53 SW14G25   30.54S
BERTHOUD PASS  FAIR      36  28  75 W29G37    30.52F
COTTONWOOD PAS CLOUDY    48  39  71 SW18G29   30.42S
GUNNISON       MOCLDY    52  46  82 CALM      30.37S
KREMMLING      PTCLDY    45  39  81 CALM      30.27S
LEADVILLE      CLOUDY    48  37  65 E7        30.41F
MONARCH PASS   MOCLDY    37  36  93 W23       30.66F
SALIDA         CLOUDY    56  48  75 NW5       30.38F
SUNLIGHT       PTCLDY    45  41  87 CALM      30.49R
WILKERSON PASS NOT AVBL
$$

COZ069>075-041100-
...SAN LUIS VALLEY/SANGRE DE CRISTO MOUNTAINS...

CITY           SKY/WX    TMP DP  RH WIND       PRES   REMARKS
ALAMOSA        CLEAR     47  44  90 CALM      30.30S
LA VETA PASS   CLEAR     46  43  87 MISG      30.45S
SAGUACHE       PTCLDY    52  45  76 W9        30.34S
$$

COZ035-036-038>040-041100-
...NORTHERN COLORADO FRONT RANGE...

CITY           SKY/WX    TMP DP  RH WIND       PRES   REMARKS
DENVER INTL AP PTCLDY    59  50  72 SW10      30.04F
DMNS CITY PARK   N/A     60  51  72 E7        30.05F
AURORA         PTCLDY    58  51  76 SW6       30.08S
FRONT RANGE AP NOT AVBL
ERIE MUNI ARPT CLEAR     57  52  82 SW9       30.03F
BOULDER MUN AP CLEAR     57  52  82 CALM      30.03F
CENTENNIAL     PTCLDY    58  49  72 SW6       30.08F
BROOMFIELD     CLEAR     59  46  63 W10       30.06F
FORT COLLINS   PTCLDY    59  52  77 CALM      30.04S
LONGMONT       PTCLDY    59  51  75 CALM      30.04F
$$

COZ041-046-047-076>085-087-088-041100-
...PIKES PEAK/PALMER DIVIDE AND SOUTHERN FOOTHILLS...

CITY           SKY/WX    TMP DP  RH WIND       PRES   REMARKS
COLO. SPRINGS  CLEAR     55  49  80 NE5       30.14F
A. F. ACADEMY  CLEAR     49  49  99 N12       30.15F
ELLICOTT       CLEAR    N/A N/A N/A W3        30.12S
FALCON         CLEAR     53  47  78 W6        30.18S
FORT CARSON    CLEAR     52  51  95 NW7       30.11S
LIMON          CLEAR     48  48 100 N3        30.05F
MONUMENT HILL  CLEAR     55  41  58 SW9       30.18S
TRINIDAD       CLEAR     59  55  87 SW7       30.15S
$$

COZ042>045-048>051-090-091-041100-
...NORTHEAST COLORADO...

CITY           SKY/WX    TMP DP  RH WIND       PRES   REMARKS
GREELEY ARPT   PTCLDY    55  50  82 N5        30.03S
AKRON          CLEAR     62  52  69 SW9       29.99F
BURLINGTON     PTCLDY    64  61  90 SW5       29.99F
WRAY           MOCLDY    60  54  80 W3        29.96F
STERLING       CLEAR     57  52  82 CALM      29.95F
HOLYOKE        MOCLDY    59  54  82 NW3       29.97S
FORT MORGAN    CLEAR     58  49  72 CALM      30.00S
$$

COZ086-089-092>099-041100-
...SOUTHEAST COLORADO...

CITY           SKY/WX    TMP DP  RH WIND       PRES   REMARKS
PUEBLO         CLEAR     60  56  86 W6        30.06S
LA JUNTA       CLEAR     60  58  92 W9        30.02S
LAMAR          CLEAR     61  59  93 SW7       29.98R
SPRINGFIELD      N/A     59  56  89 SW7       30.01S
$$



USA.gov is the U.S. government's official web portal to all federal, state and local government web resources and services.